Current weather by "City, St" or "zip code"  
 
Advertise Here

Current Conditions: Lander, WY

Fair


53.0 F

Last Updated on Sep 16 2021, 10:53 pm MDT
Humidity: 51%
Wind Speed: N 9.2 mph
Barometer 30.14 in
Dewpoint: 35.1 F
Visibility: 10.00 mi
Precip: --
Heat Index: NA
Wind Chill: 50 F
Current conditions at:

Lander, WY (KLND)

Lat: 42.81472 Lon: 108.72806

Local Radar Image active severe weather and emergency alerts image image weather storm and storm spotter reports image weather observation monitoring service image
Local
Radar
Active
Alerts
Storm Reports Obs
Monitoring

Sign-up For Email & Text Message Weather Alert Notification Services



Advertise Here

Observation History for Lander, WY


Time Wind
(mph)
Vis
(mi)
Weather Precip (in) Temperature (F) Relative
Humidity
Wind
Chill
(F)
Heat
Index
(F)
Pressure
Air Dwpt altimeter
(in)
sea level
(mb)
Rmks
10:53 pm MDT N 9.2 10.00 Fair -- 53.0 35.1 51% 50 NA 30.14 1015.5
9:53 pm MDT NE 6.9 10.00 Fair -- 56.0 34.0 44% 54 NA 30.12 1015.0
8:53 pm MDT NW 3.5 10.00 Fair -- 59.0 34.0 39% NA NA 30.08 1013.9
7:53 pm MDT N 18.4 10.00 Fair -- 62.0 34.0 35% 60 NA 29.98 1010.4
6:53 pm MDT NW 9.2 G 23.0 10.00 Fair -- 73.0 28.9 19% NA NA 29.94 1008.1
5:53 pm MDT W 15.0 G 29.9 10.00 Fair -- 77.0 28.9 17% NA NA 29.92 1006.2
4:53 pm MDT W 23.0 G 36.8 10.00 A Few Clouds and Breezy -- 80.0 27.0 14% NA 78 29.89 1005.2
3:53 pm MDT W 16.1 G 29.9 10.00 Fair -- 81.0 28.0 14% NA 79 29.87 1004.1
2:53 pm MDT W 20.7 G 38.0 10.00 Fair and Breezy -- 81.0 25.0 13% NA 79 29.86 1004.0
1:53 pm MDT NW 25.3 G 35.7 10.00 Fair and Breezy -- 81.0 23.0 12% NA 79 29.85 1003.5
12:53 pm MDT N 9.2 G 24.2 10.00 Fair -- 80.0 26.1 14% NA 78 29.85 1003.2
11:53 am MDT N 0.0 10.00 Fair -- 74.0 28.9 19% NA NA 29.86 1004.1
10:53 am MDT N 3.5 10.00 Fair -- 69.0 28.9 22% NA NA 29.87 1004.7
9:53 am MDT NW 5.8 10.00 Fair -- 64.0 30.9 29% NA NA 29.87 1005.0
8:53 am MDT N 6.9 10.00 Fair -- 57.0 28.9 34% 56 NA 29.86 1005.2
7:53 am MDT N 0.0 10.00 Fair -- 56.0 27.0 33% NA NA 29.88 1005.9
6:53 am MDT NW 5.8 10.00 Fair -- 52.0 27.0 38% 50 NA 29.88 1005.5
5:53 am MDT SW 3.5 10.00 Fair -- 60.0 24.1 25% NA NA 29.87 1004.1
4:53 am MDT 10.00 Fair -- 58.0 25.0 28% NA NA 29.87 1004.1
3:53 am MDT 10.00 Fair -- 61.0 23.0 23% NA NA 29.87 1004.0
2:53 am MDT 10.00 Fair -- 59.0 23.0 25% NA NA 29.87 1004.2
1:53 am MDT NW 5.8 10.00 Fair -- 60.0 21.9 23% 60 NA 29.89 1005.0
12:53 am MDT S 3.5 10.00 Fair -- 65.0 23.0 20% NA NA 29.89 1004.8
11:53 pm MDT W 6.9 10.00 Fair -- 64.0 21.9 20% NA NA 29.90 1005.3

Regional Weather Observation


Riverton Regional Airport, WY (KRIW)

Fair
50.0 F

South Pass, WY (KFWZ)

Fair
81.0 F

Boysen, WY (KTBX)

Fair
63.0 F

Pinedale, Ralph Wenz Field Airport, WY (KPNA)

Fair
39.0 F

Hot Springs County Airport, WY (KHSG)

Fair
47.0 F

Dubois Municipal Airport, WY (KDUB)

Fair
48.0 F
Advertise Here


Advertise Here